Home   Weather   Fürth   Past weeks

Flag for Germany Past Weather in Fürth, Bavaria, Germany — Yesterday and Last 2 Weeks

Now
21 °F

Passing clouds.


Feels Like: 21 °F
Forecast: 17 / 28 °F
Wind: 1 mph from North

Location: Nuernberg

Current Time: Jan 16, 2017 at 11:08:04 pm

Latest Report: Jan 16, 2017 at 10:20 pm


Visibility: N/A

Pressure: 30.33 "Hg

Humidity: 93%

Dew Point: 19 °F

Location of FürthLocation

Past Weather in Fürth — Graph

°F

Fürth Temperature Yesterday

Maximum temperature yesterday: 32 °F (at 1:50 am)
Minimum temperature yesterday: 27 °F (at 10:50 pm)
Average temperature yesterday: 30 °F

High & Low Weather Summary for the Past Weeks

 TemperatureHumidityPressure
High41 °F (Jan 13, 5:50 am)100% (Jan 2, 9:20 am)30.72 "Hg (Jan 2, 9:20 am)
Low1 °F (Jan 7, 2:50 am)47% (Jan 5, 3:20 am)29.27 "Hg (Jan 13, 2:20 am)
Average28 °F85%30.09 "Hg
* Reported Jan 1 9:20 pm — Jan 16 9:50 pm, Fürth, Weather by CustomWeather, © 2017

Note: Actual official high and low records may vary slightly from our data, if they occured in-between our weather recording intervals... More about our weather records

Advertising

Fürth Weather History for the Previous 24 Hours

Scroll right to see more
 ConditionsComfort  
Time TempWeatherWind HumidityBarometerVisibility
9:50 pm
Mon, Jan 16
23 °FPassing clouds.3 mph86%30.33 "HgN/A
9:20 pm23 °FPassing clouds.3 mph93%30.30 "HgN/A
8:50 pm23 °FPassing clouds.2 mph93%30.30 "HgN/A
8:20 pm25 °FPartly cloudy.No wind93%30.30 "HgN/A
7:50 pm25 °FPassing clouds.2 mph93%30.30 "HgN/A
7:20 pm25 °FPassing clouds.2 mph93%30.27 "HgN/A
6:50 pm27 °FLight snow. Passing clouds.2 mph86%30.27 "HgN/A
6:20 pm27 °FLight snow. Passing clouds.2 mph86%30.27 "HgN/A
5:50 pm27 °FLight snow. Passing clouds.3 mph93%30.24 "HgN/A
5:20 pm27 °FLight snow. Ice fog.3 mph93%30.24 "Hg3 mi
4:50 pm27 °FLight snow. Partly cloudy.3 mph93%30.24 "Hg4 mi
4:20 pm27 °FLight snow. Partly sunny.6 mph86%30.24 "HgN/A
3:50 pm28 °FLight snow. Partly sunny.6 mph80%30.21 "HgN/A
3:20 pm28 °FLight snow. Partly sunny.5 mph80%30.21 "HgN/A
2:50 pm28 °FPartly sunny.3 mph80%30.21 "HgN/A
2:20 pm28 °FPartly sunny.5 mph80%30.21 "HgN/A
1:50 pm28 °FPartly sunny.5 mph80%30.21 "HgN/A
1:20 pm28 °FLight snow. Partly sunny.5 mph80%30.21 "HgN/A
12:50 pm28 °FLight snow. Partly sunny.6 mph80%30.18 "HgN/A
12:20 pm28 °FLight snow. Broken clouds.6 mph80%30.18 "HgN/A
11:50 am28 °FLight snow. Broken clouds.7 mph80%30.18 "Hg6 mi
11:20 am27 °FLight snow. Broken clouds.6 mph86%30.21 "Hg4 mi
10:50 am27 °FLight snow. Partly sunny.5 mph86%30.21 "Hg4 mi
10:20 am25 °FLight snow. Partly sunny.1 mph100%30.18 "Hg4 mi
9:50 am23 °FScattered clouds.1 mph93%30.18 "HgN/A
9:20 am21 °FFog.2 mph100%30.18 "Hg6 mi
8:50 am23 °FFog.No wind93%30.18 "Hg5 mi
8:20 am23 °FFog.1 mph93%30.15 "Hg4 mi
7:50 am23 °FPassing clouds.1 mph93%30.15 "Hg4 mi
7:20 am23 °FPassing clouds.2 mph100%30.15 "HgN/A
6:50 am25 °FPassing clouds.2 mph100%30.15 "HgN/A
6:20 am25 °FPartly cloudy.3 mph93%30.12 "HgN/A
5:50 am27 °FPassing clouds.3 mph93%30.12 "HgN/A
5:20 am25 °FPassing clouds.3 mph100%30.12 "HgN/A
4:50 am25 °FPassing clouds.3 mph100%30.12 "HgN/A
4:20 am25 °FPassing clouds.2 mph100%30.12 "HgN/A
3:50 am25 °FLight snow. Passing clouds.3 mph100%30.12 "Hg6 mi
3:20 am25 °FLight snow. Passing clouds.3 mph100%30.12 "Hg6 mi
2:50 am25 °FLight snow. Passing clouds.5 mph100%30.12 "Hg6 mi
2:20 am25 °FLight snow. Passing clouds.3 mph93%30.12 "Hg6 mi
1:50 am23 °FFog.1 mph100%30.12 "HgN/A
1:20 am25 °FFog.1 mph93%30.12 "HgN/A
12:50 am25 °FFog.2 mph93%30.12 "HgN/A
12:20 am25 °FPassing clouds.2 mph93%30.12 "HgN/A
11:50 pm
Sun, Jan 15
27 °FPassing clouds.2 mph93%30.12 "HgN/A
11:20 pm27 °FPassing clouds.1 mph100%30.12 "HgN/A
Weather by CustomWeather, © 2017

See weather overviewHow to use our weather pages